DELTA 1 DEB, 42568

Orbit data source: Space-Track

DELTA 1 DEB, 42568 is space debris in SSO originally from a launch on Sun, 23 Jul 1972 UTC launched from the Air Force Western Test Range (AFWTR). Debris objects in space refer to the collection of defunct objects orbiting the Earth. Examples of debris include non-operational satellites, rocket bodies, and fragments generated from explosions, collisions, or faulty payload assembly.

Loading next visibility...
Identifier
42568, 1972-058KB
Orbit
SSO
Country
Flag of USUS
Related business
Manufacturer
Unknown
Mission
Spacecraft
Bus & Motor
Unknown
Mass
Unknown
Launch date (UTC)
1972-07-23 (54 years ago)
Launch vehicle
Unknown
Launch site
Air Force Western Test Range (AFWTR)
Object type
Payload
Rocket body
Debris
Shape & HBR
Unknown shape, 0.1 m
Radar Cross Section
Small (<0.1 m²)

Expand to show TLE details & history
Last TLE update: 1 week ago

TLE from 1 week ago
0 DELTA 1 DEB
1 42568U 72058KB  26098.81374056  .00000437  00000-0  22485-3 0  9994
2 42568  98.9427 129.7757 0028355  76.7518 283.6818 14.20230241 69898
Epoch: 2026-04-08T19:31Z
TLE epoch observation values (Epoch: 2026-04-08T19:31:47.184Z)
Latitude
-0.00002°
Longitude
-0.24161°
Altitude
822.705 km
Speed
7.444 km/s
True Right ascension
08h 39m 06s
True Declination
0° 00' 00"
Sunlit
Object was in daylight at epoch
Visualization orbit readout
Latitude
Unknown
Longitude
Unknown
Altitude
Unknown
Speed
Unknown
Apparent Right ascension
Unknown
Apparent Declination
Unknown
Sunlit
N/A
Visualization observer readout
Local Sidereal Time
18:45:12
Azimuth
Unknown
Elevation
Unknown
Doppler factor
Unknown
Orbital elements
Apogee altitude
842.159 km
Perigee altitude
801.329 km
Semi-major axis
7,199.881 km
Eccentricity
0.00284
Inclination
98.9427°
RAAN
129.7757°
Arg. of periapsis
76.7518°
True anomaly
283.36583°
Mean anomaly
283.6818°
Eccentric anomaly
283.52384°
Mean motion
3.55267 °/min
Orbital period
101.33 mins
BSTAR
0.00022485
Loading maneuver chart data...
Computing Atmospheric mass density...
Loading historical data...
Loading historical data...
Loading historical data...
Loading historical data...
Loading historical data...
Loading historical data...
Loading historical data...

Documentation

Showing up to 5 results
|